Meteo pe oră la Almogia

Astăzi, 20 Ianuarie, Miercuri

Timp Temperatura Precipitaţii Vânt Presiune Umiditate
00:00 +8°C° 0 mm 1 m/s 733 mmHg 78%
01:00 +8°C° 0 mm 1 m/s 733 mmHg 78%
02:00 +8°C° 0 mm 1 m/s 732 mmHg 78%
03:00 +9°C° 0 mm 1 m/s 731 mmHg 78%
04:00 +8°C° 0 mm 1 m/s 731 mmHg 80%
05:00 +8°C° 0 mm 1 m/s 731 mmHg 81%
06:00 +8°C° 0 mm 1 m/s 731 mmHg 83%
07:00 +8°C° 0 mm 2 m/s 731 mmHg 83%
08:00 +9°C° 0 mm 2 m/s 730 mmHg 83%
09:00 +9°C° 0 mm 3 m/s 730 mmHg 84%
10:00 +9°C° 1.1 mm 3 m/s 730 mmHg 87%
11:00 +10°C° 1.1 mm 3 m/s 730 mmHg 90%
12:00 +10°C° 1.1 mm 4 m/s 730 mmHg 93%
13:00 +10°C° 1.1 mm 4 m/s 730 mmHg 93%
14:00 +11°C° 1.1 mm 4 m/s 729 mmHg 94%
15:00 +11°C° 1.1 mm 3 m/s 728 mmHg 94%
16:00 +11°C° 2.6 mm 3 m/s 729 mmHg 95%
17:00 +11°C° 2.6 mm 3 m/s 729 mmHg 95%
18:00 +12°C° 2.6 mm 2 m/s 729 mmHg 96%
19:00 +10°C° 0.2 mm 2 m/s 729 mmHg 94%
20:00 +10°C° 0.2 mm 2 m/s 730 mmHg 92%
21:00 +10°C° 0.2 mm 2 m/s 730 mmHg 90%
22:00 +9°C° 0 mm 2 m/s 730 mmHg 90%
23:00 +9°C° 0 mm 2 m/s 731 mmHg 89%

Mâine, 21 Ianuarie, Joi

Timp Temperatura Precipitaţii Vânt Presiune Umiditate
00:00 +8°C° 0 mm 2 m/s 731 mmHg 89%
01:00 +8°C° 0 mm 2 m/s 731 mmHg 89%
02:00 +9°C° 0 mm 2 m/s 731 mmHg 89%
03:00 +9°C° 0 mm 2 m/s 731 mmHg 89%
04:00 +9°C° 0 mm 2 m/s 732 mmHg 90%
05:00 +9°C° 0 mm 2 m/s 732 mmHg 90%
06:00 +10°C° 0 mm 1 m/s 732 mmHg 91%
07:00 +10°C° 0 mm 1 m/s 733 mmHg 89%
08:00 +11°C° 0 mm 1 m/s 733 mmHg 87%
09:00 +12°C° 0 mm 1 m/s 733 mmHg 85%
10:00 +13°C° 0 mm 2 m/s 734 mmHg 79%
11:00 +14°C° 0 mm 2 m/s 734 mmHg 72%
12:00 +14°C° 0 mm 3 m/s 734 mmHg 66%
13:00 +16°C° 0 mm 3 m/s 734 mmHg 67%
14:00 +15°C° 0 mm 4 m/s 733 mmHg 68%
15:00 +15°C° 0 mm 4 m/s 733 mmHg 70%
16:00 +14°C° 0.1 mm 3 m/s 733 mmHg 75%
17:00 +13°C° 0.1 mm 3 m/s 733 mmHg 80%
18:00 +12°C° 0.1 mm 3 m/s 733 mmHg 86%
19:00 +11°C° 0 mm 3 m/s 733 mmHg 87%
20:00 +12°C° 0 mm 2 m/s 733 mmHg 88%
21:00 +10°C° 0 mm 2 m/s 733 mmHg 89%
22:00 +10°C° 0 mm 2 m/s 733 mmHg 89%
23:00 +12°C° 0 mm 2 m/s 732 mmHg 89%

Poimâine, 22 Ianuarie, Vineri

Timp Temperatura Precipitaţii Vânt Presiune Umiditate
00:00 +12°C° 0 mm 2 m/s 732 mmHg 89%
01:00 +11°C° 0 mm 3 m/s 732 mmHg 89%
02:00 +11°C° 0 mm 3 m/s 731 mmHg 90%
03:00 +11°C° 0 mm 3 m/s 731 mmHg 90%
04:00 +11°C° 1.1 mm 3 m/s 731 mmHg 92%
05:00 +11°C° 1.1 mm 3 m/s 731 mmHg 95%
06:00 +11°C° 1.1 mm 3 m/s 730 mmHg 97%
07:00 +12°C° 0.4 mm 3 m/s 731 mmHg 94%
08:00 +12°C° 0.4 mm 3 m/s 731 mmHg 92%
09:00 +13°C° 0.4 mm 3 m/s 731 mmHg 89%
10:00 +14°C° 0.1 mm 4 m/s 731 mmHg 84%
11:00 +15°C° 0.1 mm 5 m/s 731 mmHg 78%
12:00 +15°C° 0.1 mm 6 m/s 731 mmHg 73%
13:00 +15°C° 0 mm 7 m/s 731 mmHg 70%
14:00 +14°C° 0 mm 7 m/s 731 mmHg 68%
15:00 +13°C° 0 mm 8 m/s 731 mmHg 65%
16:00 +12°C° 0 mm 8 m/s 731 mmHg 68%
17:00 +11°C° 0 mm 8 m/s 731 mmHg 71%
18:00 +10°C° 0 mm 8 m/s 732 mmHg 74%
19:00 +9°C° 0 mm 7 m/s 732 mmHg 77%
20:00 +8°C° 0 mm 6 m/s 733 mmHg 80%
21:00 +7°C° 0 mm 4 m/s 733 mmHg 83%
22:00 +7°C° 0 mm 4 m/s 733 mmHg 83%
23:00 +7°C° 0 mm 4 m/s 734 mmHg 84%

23 Ianuarie, Sâmbătă

Timp Temperatura Precipitaţii Vânt Presiune Umiditate
00:00 +6°C° 0 mm 4 m/s 734 mmHg 85%
01:00 +6°C° 0 mm 4 m/s 734 mmHg 86%
02:00 +6°C° 0 mm 4 m/s 734 mmHg 86%
03:00 +5°C° 0 mm 4 m/s 734 mmHg 87%
04:00 +5°C° 0 mm 3 m/s 734 mmHg 87%
05:00 +5°C° 0 mm 3 m/s 734 mmHg 87%
06:00 +5°C° 0 mm 3 m/s 733 mmHg 87%
07:00 +7°C° 0 mm 3 m/s 734 mmHg 84%
08:00 +7°C° 0 mm 3 m/s 734 mmHg 82%
09:00 +8°C° 0 mm 3 m/s 734 mmHg 80%
10:00 +9°C° 0 mm 3 m/s 734 mmHg 75%
11:00 +11°C° 0 mm 4 m/s 734 mmHg 70%
12:00 +12°C° 0 mm 4 m/s 734 mmHg 65%
13:00 +12°C° 0 mm 4 m/s 733 mmHg 66%
14:00 +12°C° 0 mm 4 m/s 733 mmHg 67%
15:00 +12°C° 0 mm 4 m/s 732 mmHg 69%
16:00 +11°C° 0 mm 3 m/s 732 mmHg 74%
17:00 +11°C° 0 mm 3 m/s 732 mmHg 78%
18:00 +10°C° 0 mm 2 m/s 732 mmHg 83%
19:00 +9°C° 0 mm 2 m/s 732 mmHg 85%
20:00 +9°C° 0 mm 2 m/s 732 mmHg 86%
21:00 +9°C° 0 mm 2 m/s 732 mmHg 88%
22:00 +9°C° 0 mm 2 m/s 732 mmHg 87%
23:00 +10°C° 0 mm 2 m/s 731 mmHg 87%

24 Ianuarie, Duminică

Timp Temperatura Precipitaţii Vânt Presiune Umiditate
00:00 +10°C° 0 mm 3 m/s 731 mmHg 86%
01:00 +10°C° 0.2 mm 3 m/s 731 mmHg 88%
02:00 +10°C° 0.2 mm 3 m/s 730 mmHg 90%
03:00 +10°C° 0.2 mm 3 m/s 730 mmHg 91%
04:00 +11°C° 0.3 mm 4 m/s 730 mmHg 92%
05:00 +11°C° 0.3 mm 4 m/s 730 mmHg 93%
06:00 +12°C° 0.3 mm 4 m/s 730 mmHg 93%
07:00 +12°C° 0.2 mm 4 m/s 731 mmHg 93%
08:00 +12°C° 0.2 mm 4 m/s 731 mmHg 93%
09:00 +12°C° 0.2 mm 4 m/s 732 mmHg 93%
10:00 +13°C° 0.1 mm 4 m/s 732 mmHg 88%
11:00 +14°C° 0.1 mm 4 m/s 732 mmHg 83%
12:00 +15°C° 0.1 mm 4 m/s 732 mmHg 78%
13:00 +15°C° 0 mm 5 m/s 732 mmHg 76%
14:00 +15°C° 0 mm 5 m/s 731 mmHg 73%
15:00 +16°C° 0 mm 6 m/s 731 mmHg 71%
16:00 +15°C° 0 mm 5 m/s 731 mmHg 76%
17:00 +14°C° 0 mm 4 m/s 731 mmHg 81%
18:00 +13°C° 0 mm 3 m/s 731 mmHg 85%
19:00 +14°C° 0 mm 2 m/s 731 mmHg 86%
20:00 +13°C° 0 mm 2 m/s 732 mmHg 87%
21:00 +13°C° 0 mm 2 m/s 732 mmHg 87%
22:00 +13°C° 0 mm 2 m/s 732 mmHg 88%
23:00 +13°C° 0 mm 2 m/s 732 mmHg 88%

25 Ianuarie, Luni

Timp Temperatura Precipitaţii Vânt Presiune Umiditate
00:00 +13°C° 0 mm 2 m/s 732 mmHg 89%
01:00 +13°C° 0 mm 2 m/s 732 mmHg 89%
02:00 +13°C° 0 mm 2 m/s 732 mmHg 90%
03:00 +13°C° 0 mm 2 m/s 732 mmHg 90%
04:00 +13°C° 0 mm 2 m/s 732 mmHg 91%
05:00 +12°C° 0 mm 2 m/s 732 mmHg 91%
06:00 +12°C° 0 mm 2 m/s 732 mmHg 91%
07:00 +13°C° 0 mm 2 m/s 732 mmHg 89%
08:00 +13°C° 0 mm 2 m/s 733 mmHg 88%
09:00 +13°C° 0 mm 2 m/s 733 mmHg 86%
10:00 +14°C° 0 mm 2 m/s 733 mmHg 80%
11:00 +14°C° 0 mm 3 m/s 734 mmHg 75%
12:00 +16°C° 0 mm 3 m/s 734 mmHg 69%
13:00 +17°C° 0 mm 3 m/s 734 mmHg 68%
14:00 +17°C° 0 mm 3 m/s 734 mmHg 68%
15:00 +17°C° 0 mm 3 m/s 733 mmHg 67%
16:00 +16°C° 0 mm 3 m/s 734 mmHg 71%
17:00 +14°C° 0 mm 3 m/s 734 mmHg 76%
18:00 +14°C° 0 mm 2 m/s 734 mmHg 80%
19:00 +13°C° 0 mm 2 m/s 735 mmHg 82%
20:00 +13°C° 0 mm 2 m/s 735 mmHg 83%
21:00 +13°C° 0 mm 2 m/s 736 mmHg 84%
22:00 +13°C° 0 mm 2 m/s 736 mmHg 84%
23:00 +12°C° 0 mm 2 m/s 736 mmHg 84%
Arată mai mult

Formular de consimțământ

Meteoprog și furnizorii noștri de servicii pot stoca și accesa date personale, precum cookies, identificatori de dispozitiv sau alte tehnologii similare pe dispozitivul dumneavoastră și procesa astfel de date pentru a personaliza conținutul și reclamele, dar și pentru a oferi caracteristici de social media și pentru a analiza traficul.

  • Stocarea și/sau accesarea informațiilor pe dispozitivul dumneavoastră

    Cookies, identificatori de dispozitiv sau alte informații pot fi stocate sau accesate pe dispozitiv în scopurile indicate mai sus.

  • Reclame și conținut personalizat, evaluarea reclamelor și a conținutului, informații despre audiențe și dezvoltarea produselor

    Reclamele și conținutul pot fi personalizate pe baza unui profil. Pot fi adăugate date suplimentare pentru a personaliza mai bine reclamele și conținutul. Performanța reclamelor și conținutului poate fi măsurată. Pot fi obținute informații despre utilizatorii care au văzut reclamele și conținutul. Aceste date pot fi utilizate pentru a dezvolta sau îmbunătăți experiența utilizatorilor, sistemele și software-ul.

Dând clic pe ‘Sunt de acord’, permiteți utilizarea cookie-urilor menționate, a identificatorilor de dispozitiv, balizelor web sau altor tehnologii similare. Setările pot fi modificate din browser-ul dispozitivului dumneavoastră.

În anumite scopuri, interesele legitime pot prima asupra consimțământului. Puteți citi mai multe informații în acest sens în Politica privind Confidențialitatea Datelor și Cookie.